SCP
2 2 2 2 2 2 2 2 2 2 1 1 1 1 1 1 1 0 0 0 1 1 1 1 1 1 1 1 1 1 1 1 1 1 1 0 0 0 0 0 1 1 1
2 2 2 1 1 1 1 1 1 1 1 1 1 1 1 1 0 0 0 0 0 1 1 1 1 1 1 1 1 1 1 1 1 1 1 1 0 0 0 0 1 1 1
2 2 1 1 1 1 1 1 1 1 1 1 1 1 1 1 0 0 0 0 0 1 1 1 1 1 1 1 1 1 1 1 1 1 2 1 1 1 0 0 0 1 1
1 1 1 1 1 1 1 1 1 1 1 1 1 1 1 1 1 0 0 0 0 1 1 1 1 1 1 1 1 1 1 1 1 1 1 1 1 1 1 1 0 0 0
1 1 1 1 1 1 1 1 1 1 1 1 1 1 1 1 1 1 1 1 1 1 1 1 1 1 1 1 1 1 1 1 1 1 1 1 1 1 1 1 1 0 0
1 0 0 0 1 1 1 1 1 1 1 1 1 1 1 1 1 1 1 1 1 1 1 1 1 1 1 1 1 1 1 1 1 1 0 1 1 1 1 1 1 1 0
1 0 0 0 0 1 1 1 1 1 1 0 0 0 0 0 1 0 0 0 0 0 0 0 1 1 0 0 0 0 0 0 0 1 0 1 1 1 1 1 1 1 0
1 0 0 0 0 0 0 0 0 0 0 0 0 0 0 1 1 0 0 0 0 0 0 0 0 0 0 0 0 0 0 0 1 1 0 0 1 1 1 1 1 1 1
0 0 0 0 0 0 0 0 0 0 0 0 0 0 1 1 0 0 0 0 0 0 0 0 0 0 0 0 0 0 0 0 1 0 0 0 1 1 1 1 1 1 1
0 0 0 0 0 0 0 0 0 0 0 0 0 0 0 0 0 0 0 0 0 0 0 0 0 0 0 0 0 0 0 0 0 0 0 0 1 1 1 1 1 1 1
0 0 0 0 0 0 0 0 0 0 0 0 0 0 0 0 0 0 0 0 0 0 0 0 0 0 0 0 0 0 0 0 0 0 0 0 0 1 1 1 1 1 1
0 0 0 0 0 0 0 0 0 0 0 0 0 0 0 0 0 0 0 0 0 0 0 0 0 0 0 0 0 0 0 0 0 0 0 0 0 0 0 0 0 1 1
0 0 0 0 0 0 0 0 0 0 0 0 0 0 0 0 0 0 0 0 0 0 0 0 0 0 0 0 0 0 0 0 0 0 0 0 0 0 0 0 0 0 0
0 0 0 0 0 0 0 0 0 0 0 0 0 0 0 0 0 0 0 0 0 0 0 0 0 0 0 0 0 0 0 0 0 0 0 0 0 0 0 0 0 0 0
0 0 0 0 0 0 0 0 0 0 0 0 0 0 0 0 0 0 0 0 0 0 0 0 0 0 0 0 0 0 0 0 0 0 0 0 0 0 0 0 0 0 0
0 0 0 0 0 0 0 0 0 0 0 0 0 0 0 0 0 0 0 0 0 0 0 0 0 0 0 0 0 0 0 0 0 0 0 0 0 0 0 0 0 0 0
0 0 0 0 0 0 0 0 0 0 0 0 0 0 0 0 0 0 0 0 0 0 0 0 0 0 0 0 0 0 0 0 0 0 0 0 0 0 0 0 0 0 0
0 0 0 0 0 0 0 0 0 0 0 0 0 0 0 0 0 0 0 0 0 0 0 0 0 0 0 0 0 0 0 0 0 0 0 0 0 0 0 0 0 0 0
0 0 0 0 0 0 0 0 0 0 0 0 0 0 0 0 0 0 0 0 0 0 0 0 0 0 0 0 0 0 0 0 0 0 0 0 0 0 0 0 0 0 0
0 0 0 0 0 0 0 0 0 0 0 0 0 0 0 0 0 0 0 0 0 0 0 0 0 0 0 0 0 0 0 0 0 0 0 0 0 0 0 0 0 0 0
0 0 0 0 0 0 0 0 0 0 0 0 0 0 0 0 0 0 0 0 0 0 0 0 0 0 0 0 0 0 0 0 0 0 0 0 0 0 0 0 0 0 0
0 0 0 0 0 0 0 0 0 0 0 0 0 0 0 0 0 0 0 0 0 0 0 0 0 0 0 0 0 0 0 0 0 0 0 0 0 0 0 0 0 0 0
0 0 0 0 0 0 0 0 0 0 0 0 0 0 0 0 0 0 0 0 0 0 0 0 0 0 0 0 0 0 0 0 0 0 0 0 0 0 0 0 0 0 0
0 0 0 0 0 0 0 0 0 0 0 0 0 0 0 0 0 0 0 0 0 0 0 0 0 0 0 0 0 0 0 0 0 0 0 0 0 0 0 0 0 0 0
0 0 0 0 0 0 0 0 0 0 0 0 0 0 0 0 0 0 0 0 0 0 0 0 0 0 0 0 0 0 0 0 0 0 0 0 0 0 0 0 0 0 0
0 0 0 0 0 0 0 0 0 0 0 0 0 0 0 0 0 0 0 0 0 0 0 0 0 0 0 0 0 0 0 0 0 0 0 0 0 0 0 0 0 0 0
Wind_Speed
5 5 5 5 5 5 6 5 5 5 3 2 2 2 2 2 3 3 4 4 4 4 3 2 2 2 2 2 2 1 1 1 0 0 1 1 1 1 1 1 1 1 1
5 5 5 5 5 5 5 5 5 5 4 2 2 2 2 2 2 3 4 5 5 4 3 3 3 3 2 3 2 1 1 1 0 0 0 2 2 1 1 1 1 1 1
7 5 4 4 5 5 5 4 5 5 5 4 3 3 2 2 3 4 4 4 5 5 4 3 3 3 3 2 2 2 1 1 1 0 1 1 1 1 1 1 1 1 1
6 5 4 4 5 4 4 5 5 6 5 4 4 4 3 2 2 2 2 4 5 5 5 4 4 3 3 3 3 2 1 1 1 1 1 1 1 1 1 1 1 2 1
7 6 5 5 4 4 4 5 5 6 5 5 5 4 3 2 1 2 3 4 5 5 5 5 4 3 3 3 3 3 2 1 1 1 1 1 1 1 1 1 1 2 2
7 7 6 5 5 5 5 5 6 6 5 5 5 4 4 3 3 3 4 3 3 4 6 5 4 4 3 3 3 3 3 2 1 1 1 1 1 1 1 2 1 1 2
8 8 7 5 5 4 4 5 6 5 5 5 5 4 4 3 3 2 2 3 3 3 5 5 4 4 3 3 3 3 3 3 2 2 2 2 2 1 1 1 1 0 1
8 7 7 6 5 4 4 4 5 4 4 4 4 3 3 2 2 2 2 2 2 2 3 4 4 4 4 4 4 3 3 3 3 3 2 2 2 2 2 2 2 1 0
8 7 7 6 5 4 4 4 4 4 3 3 3 4 4 3 3 3 3 2 2 2 4 4 5 5 5 4 4 3 3 3 3 3 3 2 2 2 1 2 2 2 2
8 7 6 6 4 4 4 4 3 3 3 3 3 3 3 3 3 3 4 4 3 3 4 5 5 5 5 5 4 3 4 4 4 3 3 3 2 2 1 0 1 1 2
9 7 6 5 5 4 4 3 3 3 4 3 3 3 3 3 4 4 4 3 3 4 4 5 5 5 5 5 4 4 5 5 5 4 4 4 3 2 1 0 1 1 2
8 7 7 6 5 4 3 3 3 3 3 3 3 3 3 4 4 4 4 4 3 4 4 4 5 5 5 4 4 5 5 5 5 5 5 5 3 3 2 1 1 1 2
9 7 6 6 5 4 3 3 3 2 2 3 3 3 3 3 3 3 3 4 3 4 4 5 5 5 5 4 4 4 5 5 5 5 5 5 4 4 3 2 2 2 3
9 8 7 5 5 4 3 3 2 2 2 2 3 3 3 3 3 3 3 3 3 4 4 5 5 5 5 5 5 4 5 5 5 5 4 4 4 3 2 2 2 3 4
9 8 7 6 5 4 3 3 2 2 2 2 3 2 2 2 3 3 3 3 3 4 4 4 5 5 5 5 5 4 5 5 5 5 5 5 5 5 3 2 2 3 3
9 8 8 7 6 5 4 3 3 2 2 2 2 2 2 3 3 3 3 3 4 4 4 5 5 5 5 7 8 5 4 5 5 5 5 5 6 6 5 5 4 3 4
8 8 7 6 6 5 5 4 3 2 3 2 2 2 2 3 3 3 4 4 3 4 4 4 5 5 6 8 8 8 5 5 5 5 5 5 5 5 4 5 6 5 4
8 7 7 6 5 4 4 4 3 3 3 2 2 2 2 2 2 3 3 3 3 3 3 4 4 4 6 7 7 7 5 5 5 5 5 4 5 4 3 4 5 5 4
7 7 6 6 6 6 5 5 4 3 3 2 2 2 2 2 3 3 3 2 2 3 3 3 4 4 5 7 7 6 4 5 6 6 6 5 5 6 5 5 5 5 5
7 7 7 6 6 5 5 5 4 3 2 1 1 2 2 2 2 2 2 2 2 2 3 4 4 4 5 7 7 5 3 4 4 5 6 8 7 7 6 4 5 5 4
8 8 8 6 5 5 5 5 3 2 1 2 2 2 2 2 2 2 2 2 2 3 3 4 4 4 5 6 7 5 3 2 3 4 4 5 8 7 7 5 4 4 4
8 7 7 5 4 5 5 4 3 2 2 3 3 2 2 2 2 2 2 3 3 3 3 3 4 4 4 6 6 6 4 2 2 2 3 4 6 7 6 5 5 6 5
7 6 7 6 4 4 4 4 2 3 3 3 3 2 2 3 2 2 2 2 2 2 2 2 2 3 3 4 6 6 6 5 2 2 4 4 5 6 5 6 6 4 3
7 6 7 6 4 3 3 3 3 3 4 3 2 1 2 2 2 2 1 1 1 1 1 1 2 2 3 3 3 3 3 4 3 3 4 5 5 4 4 4 4 3 2
5 6 6 6 5 4 3 3 3 4 3 2 2 1 1 1 2 2 1 0 1 2 1 1 1 1 2 3 3 2 2 2 2 2 2 3 3 3 3 3 3 2 2
6 6 6 5 5 4 3 3 3 4 4 2 1 1 1 1 1 1 2 2 2 3 3 3 3 2 4 4 4 4 4 4 3 2 2 2 2 2 2 2 2 2 1
Wind_Direction
117 92 79 73 73 66 62 55 53 44 47 51 62 63 48 30 34 36 30 24 20 22 28 16 16 20 14 353 349 337 340 350 30 14 335 327 314 318 319 308 314 307 283
126 103 83 63 63 63 61 62 56 51 48 51 59 76 71 49 47 33 30 21 16 18 24 22 17 15 11 11 12 11 332 320 15 68 343 322 335 345 337 337 327 311 324
145 131 107 84 73 65 59 65 57 55 50 53 67 67 52 31 25 18 15 7 10 17 21 19 22 16 14 357 348 358 355 299 299 43 168 218 261 322 343 357 7 1 2
146 138 120 98 80 71 67 65 62 58 51 52 63 69 70 49 13 2 360 359 14 18 17 18 20 12 8 1 349 354 345 330 288 302 288 242 208 229 310 339 1 4 0
151 142 129 108 86 72 68 67 68 60 53 56 61 68 67 49 19 17 17 10 9 16 16 16 16 12 7 1 359 356 356 343 305 265 257 249 244 222 224 277 331 4 9
147 136 123 108 91 76 67 66 68 57 49 55 60 68 72 63 43 25 19 7 1 5 11 9 9 7 4 356 349 351 354 346 328 306 270 239 231 213 211 230 256 335 359
149 143 135 120 102 85 72 68 69 57 47 53 56 61 68 67 55 31 19 11 5 359 356 2 2 1 356 355 359 2 357 351 344 323 298 274 252 233 218 214 210 159 24
145 145 141 130 118 103 85 76 74 66 52 56 55 51 56 59 49 39 36 19 356 343 348 359 3 2 2 5 9 9 357 355 349 337 319 301 283 246 219 199 175 167 95
142 140 136 127 125 116 99 91 85 71 53 56 58 48 42 46 45 37 37 23 4 358 4 5 9 7 7 6 9 6 358 355 351 339 332 316 304 281 243 206 192 177 180
141 140 136 131 128 120 107 97 91 86 75 69 63 58 42 41 41 39 29 21 11 12 10 8 10 11 9 8 11 0 354 2 352 344 346 338 323 330 308 208 208 201 174
150 146 137 130 125 115 109 104 92 73 63 60 59 53 41 38 41 36 22 18 17 15 15 8 10 11 9 8 11 7 3 6 1 359 358 352 349 4 0 47 113 128 135
138 133 129 125 123 119 112 102 91 78 62 56 56 50 42 38 37 29 17 17 18 15 15 12 11 8 7 8 12 10 10 9 4 1 4 1 9 23 16 35 73 110 123
133 131 131 133 131 126 116 101 88 80 65 65 64 51 42 39 33 23 14 15 16 17 18 19 12 3 4 10 13 15 12 12 10 8 11 5 16 22 24 42 67 90 102
142 143 142 140 136 132 129 119 97 87 80 75 69 55 38 35 31 26 20 14 17 21 18 16 10 6 11 13 10 15 14 10 10 12 14 12 16 15 21 52 73 95 103
152 154 152 149 146 139 131 122 106 88 85 78 63 46 36 37 34 29 25 22 25 24 20 22 15 10 14 12 9 12 18 13 11 13 14 17 25 29 33 67 95 113 117
161 158 157 156 155 151 144 132 117 99 92 81 60 44 45 41 33 29 31 30 26 23 26 23 17 17 17 15 27 32 27 21 18 11 5 12 21 27 43 62 77 109 136
158 158 159 157 155 150 143 140 134 112 94 82 61 47 50 49 37 38 40 31 22 26 24 17 18 15 9 23 34 37 35 28 21 13 8 13 15 24 47 60 63 65 81
153 152 148 146 141 131 129 126 113 103 92 75 59 49 52 49 46 44 34 24 23 26 20 13 9 11 12 23 32 34 36 32 23 17 14 16 10 19 47 70 68 63 61
146 142 140 138 132 130 129 120 107 95 83 68 50 43 58 62 51 40 27 19 27 26 18 8 11 13 4 17 32 36 34 34 22 16 19 20 20 21 51 80 80 70 59
124 128 126 122 126 132 130 122 118 109 101 82 61 50 62 69 59 37 21 21 30 26 22 24 16 13 6 11 23 28 37 34 19 13 17 25 27 29 47 75 87 81 72
125 127 126 128 136 136 127 121 120 123 129 100 77 60 57 66 69 40 26 40 42 39 33 27 13 13 9 10 21 33 47 40 25 18 9 7 19 34 46 62 82 102 105
129 130 129 127 129 132 128 127 134 131 107 96 81 59 48 53 63 57 41 42 47 45 27 19 10 7 6 16 22 36 47 45 42 14 356 355 18 37 48 63 81 92 96
133 131 130 125 122 131 135 138 150 128 110 97 82 61 52 50 52 61 50 37 37 45 23 18 9 354 359 5 17 28 32 32 30 358 3 16 32 42 50 56 66 79 86
138 133 131 133 137 141 141 152 148 132 117 106 87 64 53 40 35 37 47 54 23 24 16 7 354 344 348 353 353 356 5 17 20 6 8 24 40 48 48 46 46 50 73
142 141 144 148 151 146 146 152 146 136 125 115 96 73 62 51 30 23 7 318 258 227 220 238 237 293 322 307 311 334 348 350 349 354 20 27 27 28 28 31 36 46 66
143 142 145 148 151 150 155 158 152 145 138 128 112 87 60 39 36 23 360 337 280 297 252 229 218 240 256 287 315 336 345 351 9 46 34 23 18 17 12 11 8 13 27